Home > Weather > St. John's > Past weeks

Flag for Canada Past Weather in St. John's, Newfoundland and Labrador, Canada — Yesterday and Last 2 Weeks

Now
57 °F

Light rain. Overcast.


Feels Like: 54 °F
Forecast: 39 / 52 °F
Wind: 14 mph from West

Location: St. John's

Current Time: May 26, 2016 at 4:29:31 AM

Latest Report: May 26, 2016 at 3:30 AM


Visibility: 12 mi

Pressure: 29.93 "Hg

Humidity: 100%

Dew Point: 57 °F

Location of St. John'sLocation

Past Weather in St. John's — Graph

°F

St. John's Temperature Yesterday

Maximum temperature yesterday: 72 °F (at 11:30 AM)
Minimum temperature yesterday: 59 °F (at 11:30 PM)
Average temperature yesterday: 66 °F

High & Low Weather Summary for the Past Weeks

 TemperatureHumidityPressure
High73 °F (May 24, 3:30 PM)100% (May 16, 8:30 AM)30.21 "Hg (May 16, 8:30 AM)
Low30 °F (May 12, 5:30 AM)28% (May 21, 4:30 PM)29.59 "Hg (May 17, 4:30 PM)
Average46 °F74%29.88 "Hg
* Reported May 11 2:30 AM — May 26 2:30 AM, St. John's, Weather by CustomWeather, © 2016

Note: Actual official high and low records may vary slightly from our data, if they occured in-between our weather recording intervals... More about our weather records

Advertising

St. John's Weather History for the Previous 24 Hours

Scroll right to see more
 ConditionsComfort  
Time TempWeatherWind HumidityBarometerVisibility
2:30 AM
Thu, May 26
57 °FLight rain. Mostly cloudy.12 mph100%29.92 "Hg12 mi
1:30 AM57 °FLight rain. Fog.17 mph100%29.95 "Hg5 mi
12:30 AM59 °FSprinkles. Fog.16 mph94%29.96 "Hg5 mi
11:30 PM
Wed, May 25
59 °FDrizzle. Fog.14 mph94%29.97 "Hg1 mi
10:30 PM63 °FSprinkles. Mostly cloudy.6 mph94%29.98 "Hg12 mi
9:30 PM63 °FSprinkles. Fog.6 mph94%30.01 "Hg6 mi
8:30 PM63 °FSprinkles. Fog.8 mph94%30.01 "Hg6 mi
7:30 PM64 °FSprinkles. Mostly cloudy.16 mph94%30.03 "Hg8 mi
6:30 PM66 °FSprinkles. Overcast.10 mph94%30.03 "Hg15 mi
5:30 PM70 °FOvercast.13 mph78%30.04 "Hg15 mi
4:30 PM70 °FMostly cloudy.10 mph78%30.05 "Hg15 mi
3:30 PM72 °FMostly cloudy.14 mph73%30.06 "Hg15 mi
2:30 PM72 °FBroken clouds.16 mph73%30.07 "Hg15 mi
1:30 PM72 °FMostly cloudy.14 mph78%30.08 "Hg15 mi
12:30 PM72 °FSprinkles. Overcast.7 mph78%30.08 "Hg12 mi
11:30 AM72 °FOvercast.10 mph78%30.10 "Hg15 mi
10:30 AM70 °FOvercast.17 mph83%30.11 "Hg15 mi
9:30 AM68 °FPartly sunny.13 mph88%30.13 "Hg15 mi
8:30 AM66 °FSprinkles. More clouds than sun.8 mph94%30.13 "Hg15 mi
7:30 AM64 °FLow clouds.5 mph94%30.14 "Hg12 mi
6:30 AM63 °FPartly sunny.6 mph94%30.14 "Hg15 mi
5:30 AM61 °FPartly cloudy.6 mph100%30.13 "Hg15 mi
4:30 AM64 °FPassing clouds.13 mph94%30.13 "Hg15 mi
Weather by CustomWeather, © 2016

See weather overviewHow to use our weather pages